Location: Unspecified
(50.7693°N, 0.0000°E)
Time: 17:59:24
(UTC+00:00)

Transit 2A - Pass Details

Date: 01 July 2019
Orbit: 594 x 965 km, 66.7° (Epoch: 17 July)

Event Time Altitude Azimuth Distance (km) Brightness Sun altitude
Rises 00:28:13 0° 257° (WSW) 3,646 9.3 -15.9°
Reaches altitude 10° 00:31:10 10° 268° (W) 2,688 8.7 -15.8°
Maximum altitude 00:36:38 30° 328° (NNW) 1,606 8.2 -15.7°
Drops below altitude 10° 00:41:53 10° 29° (NNE) 2,557 9.9 -15.6°
Sets 00:44:37 0° 40° (NE) 3,442 10.4 -15.5°
